TOP

aktuelle Temperatur 13,7 C  Tiefsttemperatur 8,7 C     Hchsttemperatur 27,9 C      aktueller Luftdruck 1020,5 hPa     Regen am Tag 0,0 l/m     Regen im Jahr 465,6 l/m Dampfdruck aktuell 11,902 hPa    Dampfdruck gesttigt 15,659 hPa    Dampfgehalt aktuell 7,34 g/kg     Dampfgehalt gesttigt  9,69 g/kg       Luftdichte 1,1976 kg/m
Langzeitwerte Diagramme Vorhersage (5 Tage) Ausführliche Wetterseite private Homepage Gästebuch
Jetzt Neu: Bilder vom Hochwasser 2002 aus Meissen und Nossen Pegelstand Mulde Pegelstand Elbe Webcams Dresden Interessante Wetterlinks
Temp.nd. letzte Stunde Temp.nd. letzte 2 Stunden Temp.nd. letzte 3 Stunden Temp.nd. letzte 4 Stunden Temp.nd. letzte 5 Stunden
-1,5 C -3,7 C -6,0 C -11,2 C -13,7 C
Wetterübersicht - Nossen in Sachsen (Standort nicht WMO-Konform)     299 m über NN
Geografische Lage: 51 03' n. Br. 13 18' . L Hhe . NN: 299 m
 
Sommerzeitbeginn:02:00 27.03.2016   Sommerzeitende:03:00 30.10.2016
(berschreitung der Grnlandtemeratur von 200 entspricht Vegetationsbeginn)
Vegetationsbeginn 2016 am: 26.03.2016
Vegetationsbeginn 2015 am: 27.03.2015
Vegetationsbeginn 2014 am: 14.03.2014
Vegetationsbeginn 2013 am: 18.04.2013
Vegetationsbeginn 2012 am: 24.03.2012
Vegetationsbeginn 2011 am: 01.04.2011
Vegetationsbeginn 2010 am :08.04.2010
Vegetationsbeginn 2009 am :05.04.2009
Vegetationsbeginn 2008 am :13.03.2008
Vegetationsbeginn 2007 am :09.03.2007
Vegetationsbeginn 2006 am :17.04.2006
 
Datum Mittwoch, 31. August 2016
Zeit 23:01 (-2h = UTC-Zeit)
Temperatur Auen aktuell
13,7 C
Min.(06:50)
8,7 C
Max.(18:10)
27,9 C
Durchschnitt
17,4 C
Luftfeuchte Auen aktuell
76 %
Min.(17:00)
28 %
Max.(07:25)
91 %
Durchschnitt
64 %
Taupunkt aktuell
9,5 C
Min.(17:00)
6,7 C
Max.(19:55)
12,5 C
Durchschnitt
9,3 C
Luftdruck
aktuell
1020,5 hPa
-0,5 hPa/6h
Min.(19:25)
1020,2 hPa
Max.(00:40)
1026,0 hPa
Durchschnitt
1023,3 hPa
-0,1 hPa/1h -0,1 hPa/2h +0,2 hPa/3h -3,6 hPa/12h -5,4 hPa/24h
Wettervorhersage sonnig
Persönliche Wohlbefinden mige Wrmebelastung (16)
Windchill aktuell
13,7 C
Min.(06:50)
8,7 C
Max.(18:10)
27,9 C
Durchschnitt
17,4 C
Windgeschwindigkeit aktuell
0,0 km/h (0 Bft)
Max.(16:00)
O-SO 6,1 km/h (2 Bft)
Durchschnitt
0,7 km/h (0 Bft)
Windrichtung 0 / N
Durchschnittstemperatur 17,4 C
Minimaltemperatur letzte 4 Stunden: Min.(06:50)
8,7 C
Maximaltemperatur letzte 3 Stunden: Max.(18:10)
27,9 C
Dauer aktueller Frost 3 Stunden, 16 Minuten
Letzter Frosttag im Jahr 29.04.2016
Letzter Frosttag im Jahr Zeit 05:25
Letzter Frosttag im Jahr Wert -1,3 C
Niederschlag
letzte Std. 0,0 l/m
letzten 24 Std. 0,0 l/m
aktuelle Woche 0,0 l/m
aktueller Monat 29,8 l/m
letztes Monat 56,0 l/m
August Vorjahr 91,6 l/m
aktuelles Jahr 465,6 l/m
Regen / Jahr 113 Tage
Datum letzter Regen 04:18 21.08.2016
ohne Regen seit 10 Tage, 18 Stunden, 41 Minuten
ohne Regen seit (kurz) 10 T, 18 h, 41 min
Mond
Alter des Mondes29 Tage, 1 Stunde, 9 Minuten
Mondaufgang05:13
Mondzenit12:23
Monduntergang19:22
Mondphase 0%
(0% = Neumond, 100% = Vollmond)
letztes Viertel11:57  23.09.2016
erstes Viertel13:50  09.09.2016
nächster Vollmond21:06  16.09.2016
nächster Neumond11:04  01.09.2016
Sonne
Sonnenaufgang gestern06:17  30.08.2016
Sonnenaufgang06:18
Sonnenzenit13:06
Sonnenuntergang19:53
Sonnenaufgang morgen06:20  01.09.2016
Sonnenstand Azimut-145,075
Sonnenstand Azimut abs325,075
Sonnenstand Elevation-24,688
Sonnenhchststand Elev47,339
Tageslnge13 Stunden 34 Minuten

Wetterprognose fr Nossen und Umgebung (Mit freundlicher Genehmigung von Wetterzentrale.de)

Wetterprognose Nossen von Wetterzentrale.de

Langzeitwerte

TOP

2015 2016
Monat Temperatur Regen Monat Temperatur Regen
Min Max Durch. Min Max Durch.
Januar -67,8 C 14,8 C 3,1 C 60,6 l/m Januar -15,0 C 12,9 C 0,7 C 49,4 l/m
Februar -6,2 C 10,6 C 0,8 C 10,4 l/m Februar -6,1 C 13,1 C 3,6 C 65,2 l/m
März -4,3 C 18,4 C 5,1 C 56,8 l/m März -3,7 C 16,4 C 4,1 C 47,6 l/m
April -4,3 C 23,5 C 8,0 C 52,0 l/m April -1,8 C 21,9 C 7,7 C 68,6 l/m
Mai 0,7 C 27,5 C 13,3 C 13,0 l/m Mai 1,4 C 28,4 C 14,0 C 45,6 l/m
Juni 5,3 C 32,8 C 16,3 C 75,4 l/m Juni 9,3 C 33,3 C 18,3 C 103,4 l/m
Juli 6,6 C 35,9 C 20,2 C 73,6 l/m Juli 8,7 C 31,8 C 19,4 C 56,0 l/m
August 7,6 C 37,9 C 21,2 C 91,6 l/m August 6,3 C 34,8 C 18,0 C 29,8 l/m
September 0,9 C 31,2 C 13,1 C 61,6 l/m September 0,0 C 0,0 C 0,0 C 0,0 l/m
Oktober -3,6 C 21,4 C 7,8 C 71,4 l/m Oktober 0,0 C 0,0 C 0,0 C 0,0 l/m
November -4,3 C 19,6 C 7,5 C 106,2 l/m November 0,0 C 0,0 C 0,0 C 0,0 l/m
Dezember -4,6 C 15,4 C 7,0 C 27,0 l/m Dezember 0,0 C 0,0 C 0,0 C 0,0 l/m
2013 2014
Monat Temperatur Regen Monat Temperatur Regen
Min Max Durch. Min Max Durch.
Januar -19,4 C 13,1 C -0,3 C 74,2 l/m Januar -13,8 C 13,9 C 1,8 C 31,0 l/m
Februar -10,1 C 7,4 C -0,8 C 28,8 l/m Februar -4,1 C 15,5 C 4,2 C 14,8 l/m
März -16,0 C 13,3 C -1,3 C 21,4 l/m März -3,6 C 21,9 C 6,5 C 24,4 l/m
April -5,3 C 26,8 C 8,8 C 19,8 l/m April -2,2 C 23,5 C 10,9 C 35,6 l/m
Mai 2,1 C 26,1 C 12,9 C 81,8 l/m Mai -0,4 C 28,9 C 12,6 C 147,2 l/m
Juni 3,3 C 34,8 C 16,2 C 99,0 l/m Juni 4,8 C 32,4 C 16,5 C 24,2 l/m
Juli 9,1 C 36,7 C 19,6 C 23,8 l/m Juli 7,1 C 33,8 C 20,0 C 103,4 l/m
August 6,1 C 35,2 C 18,1 C 46,4 l/m August 6,2 C 30,8 C 16,6 C 59,2 l/m
September 0,8 C 28,3 C 12,8 C 39,8 l/m September 3,7 C 27,2 C 15,2 C 105,2 l/m
Oktober -1,8 C 23,5 C 10,7 C 58,0 l/m Oktober -1,3 C 24,8 C 12,0 C 44,8 l/m
November -7,1 C 15,9 C 4,9 C 51,4 l/m November -3,4 C 21,7 C 6,1 C 10,2 l/m
Dezember -4,8 C 14,1 C 3,9 C 31,6 l/m Dezember -8,7 C 12,8 C 2,9 C 58,6 l/m
2011 2012
Monat Temperatur Regen Monat Temperatur Regen
Min Max Durch. Min Max Durch.
Januar -16,5 C 11,6 C -0,1 C 35,7 l/m Januar -12,5 C 11,4 C 0,6 C 72,5 l/m
Februar -18,8 C 11,4 C -1,4 C 10,9 l/m Februar -23,6 C 11,8 C -4,0 C 28,5 l/m
März -10,0 C 19,9 C 3,9 C 12,4 l/m März -6,6 C 23,6 C 6,1 C 14,5 l/m
April -1,4 C 27,6 C 10,4 C 32,6 l/m April -4,4 C 29,1 C 9,0 C 28,0 l/m
Mai -1,2 C 31,4 C 13,6 C 16,6 l/m Mai 0,5 C 29,9 C 14,7 C 24,8 l/m
Juni 6,2 C 32,4 C 17,0 C 54,4 l/m Juni 4,5 C 32,1 C 16,8 C 54,6 l/m
Juli 5,3 C 31,7 C 16,2 C 180,8 l/m Juli 8,1 C 32,4 C 18,7 C 93,8 l/m
August 6,2 C 33,2 C 17,8 C 79,8 l/m August 5,8 C 37,4 C 18,5 C 27,0 l/m
September 3,3 C 30,5 C 14,5 C 67,3 l/m September 3,7 C 30,5 C 14,1 C 35,2 l/m
Oktober -5,0 C 26,4 C 8,4 C 37,3 l/m Oktober -4,9 C 24,5 C 8,3 C 18,0 l/m
November -8,2 C 16,4 C 2,6 C 0,0 l/m November -5,9 C 14,5 C 5,0 C 66,8 l/m
Dezember -4,7 C 13,8 C 2,9 C 50,2 l/m Dezember -18,2 C 16,1 C 1,3 C 54,8 l/m
2009 2010
Monat Temperatur Regen Monat Temperatur Regen
Min Max Durch. Min Max Durch.
Januar -17,7 C 5,9 C -2,8 C 6,7 l/m Januar -18,9 C 4,3 C -4,7 C 4,7 l/m
Februar -9,0 C 9,6 C 0,2 C 20,7 l/m Februar -14,1 C 11,9 C -1,1 C 10,4 l/m
März -4,2 C 15,6 C 4,1 C 58,5 l/m März -13,5 C 21,8 C 2,9 C 44,0 l/m
April -3,9 C 26,3 C 10,9 C 12,4 l/m April -4,1 C 27,5 C 7,4 C 19,2 l/m
Mai 1,3 C 29,7 C 12,5 C 97,4 l/m Mai 1,9 C 27,1 C 10,7 C 89,6 l/m
Juni 1,2 C 29,0 C 13,4 C 62,7 l/m Juni 4,4 C 33,5 C 17,6 C 31,6 l/m
Juli 7,3 C 30,7 C 18,0 C 51,8 l/m Juli 8,2 C 36,5 C 23,5 C 18,1 l/m
August 4,9 C 32,9 C 18,3 C 80,3 l/m August 8,2 C 36,5 C 23,5 C 18,1 l/m
September 2,2 C 31,0 C 13,8 C 38,8 l/m September 8,2 C 36,5 C 23,5 C 18,1 l/m
Oktober -6,0 C 24,4 C 6,9 C 82,4 l/m Oktober 8,2 C 36,5 C 23,5 C 18,1 l/m
November -5,1 C 18,1 C 6,6 C 51,3 l/m November -8,7 C 1,9 C -3,3 C 2,6 l/m
Dezember -17,6 C 10,4 C -0,7 C 62,7 l/m Dezember -11,7 C 0,6 C -2,7 C 0,0 l/m

2007 2008
Monat Temperatur Regen Monat Temperatur Regen
Min Max Durch. Min Max Durch.
Januar -10,9 C 13,6 C 4,0 C 50,2 l/m Januar -8,1 C 13,1 C 3,2 C 61,6 l/m
Februar -6,2 C 15,3 C 3,4 C 53,4 l/m Februar -10,6 C 18,8 C 3,6 C 22,3 l/m
März -3,3 C 25,1 C 5,5 C 53,9 l/m März -5,4 C 17,5 C 3,4 C 63,7 l/m
April -3,1 C 28,6 C 8,9 C 0,0 l/m April -3,1 C 21,6 C 6,1 C 91,7 l/m
Mai -2,1 C 30,8 C 13,1 C 114,0 l/m Mai -0,3 C 31,3 C 12,9 C 24,9 l/m
Juni 4,0 C 32,5 C 16,9 C 55,4 l/m Juni 3,8 C 31,8 C 16,8 C 62,7 l/m
Juli 5,9 C 35,3 C 16,7 C 74,6 l/m Juli 6,8 C 33,7 C 17,5 C 91,7 l/m
August 1,8 C 30,5 C 16,4 C 71,0 l/m August 5,0 C 34,7 C 16,0 C 107,2 l/m
September 2,4 C 25,5 C 10,7 C 85,5 l/m September -0,9 C 28,1 C 10,7 C 46,6 l/m
Oktober -3,2 C 22,4 C 6,9 C 20,2 l/m Oktober -3,2 C 21,2 C 7,8 C 76,1 l/m
November -5,6 C 11,4 C 2,2 C 73,6 l/m November -4,3 C 15,5 C 4,3 C 18,6 l/m
Dezember -11,8 C 12,8 C 0,7 C 45,6 l/m Dezember -10,9 C 7,9 C 0,5 C 52,3 l/m


2005 2006
Monat Temperatur Regen Monat Temperatur Regen
Min Max Durch. Min Max Durch.
Januar -10,2 C 11,6 C 1,7 C 42,0 l/m Januar -16,7 C 5,2 C -4,1 C 20,7 l/m
Februar -9,9 C 8,4 C -1,6 C 31,1 l/m Februar -13,1 C 6,6 C -1,2 C 7,8 l/m
März -9,5 C 16,9 C 2,9 C 26,4 l/m März -7,0 C 18,1 C 1,5 C 57,0 l/m
April -2,1 C 21,1 C 9,6 C 20,7 l/m April -1,1 C 23,2 C 8,8 C 31,6 l/m
Mai 1,8 C 31,6 C 14,3 C 82,4 l/m Mai 1,7 C 25,9 C 14,2 C 50,2 l/m
Juni 5,1 C 32,9 C 18,6 C 69,9 l/m Juni 3,0 C 33,7 C 19,2 C 52,8 l/m
Juli 9,8 C 32,8 C 19,9 C 106,2 l/m Juli 11,4 C 35,8 C 23,9 C 19,7 l/m
August 8,7 C 27,6 C 16,6 C 86,5 l/m August 8,8 C 29,0 C 16,5 C 129,0 l/m
September 2,8 C 28,8 C 14,9 C 100,5 l/m September 6,4 C 27,1 C 16,5 C 17,7 l/m
Oktober -0,2 C 18,6 C 10,2 C 549,6 l/m Oktober -2,6 C 25,6 C 11,5 C 85,4 l/m
November -4,9 C 16,6 C 3,8 C 44,5 l/m November -3,6 C 19,9 C 6,5 C 38,8 l/m
Dezember -11,8 C 6,5 C 0,5 C 44,5 l/m Dezember -7,1 C 14,2 C 4,0 C 28,0 l/m

Regentage 2015164 Tage Regentage 2016113 Tage
Regentage 2 Liter 2015 86 TageRegentage 2 Liter 2016 60 Tage
Regentage 5 Liter 2015 39 TageRegentage 5 Liter 2016 30 Tage
Regentage 10 Liter 2015 18 TageRegentage 10 Liter 2016 13 Tage
Regentage 20 Liter 2015 7 TageRegentage 20 Liter 2016 2 Tage
Regentage 2013 160 TageRegentage 2014 160 Tage
Regentage 2 Liter 2013 77 TageRegentage 2 Liter 2014 75 Tage
Regentage 5 Liter 2013 33 TageRegentage 5 Liter 2014 39 Tage
Regentage 10 Liter 2013 13 TageRegentage 10 Liter 2014 18 Tage
Regentage 20 Liter 2013 3 TageRegentage 20 Liter 2014 6 Tage
Regentage 2011 112 TageRegentage 2012 148 Tage
Regentage 2 Liter 2011 66 TageRegentage 2 Liter 2012 79 Tage
Regentage 5 Liter 2011 38 TageRegentage 5 Liter 2012 35 Tage
Regentage 10 Liter 2011 14 TageRegentage 10 Liter 2012 6 Tage
Regentage 20 Liter 2011 6 TageRegentage 20 Liter 2012 3 Tage
Regentage 2009 154 TageRegentage 2010 66 Tage
Regentage 2 Liter 2009 89 TageRegentage 2 Liter 2010 31 Tage
Regentage 5 Liter 2009 45 TageRegentage 5 Liter 2010 14 Tage
Regentage 10 Liter 2009 17 TageRegentage 10 Liter 2010 7 Tage
Regentage 20 Liter 2009 1 TageRegentage 20 Liter 2010 0 Tage

Regentage 2007 158 TageRegentage 2008 153 Tage
Regentage 2 Liter 2007 99 TageRegentage 2 Liter 2008 95 Tage
Regentage 5 Liter 2007 51 TageRegentage 5 Liter 2008 46 Tage
Regentage 10 Liter 2007 19 TageRegentage 10 Liter 2008 24 Tage
Regentage 20 Liter 2007 1 TageRegentage 20 Liter 2008 4 Tage
Regentage 2005 139 TageRegentage 2006 144 Tage
Regentage 2 Liter 2005 88 TageRegentage 2 Liter 2006 77 Tage
Regentage 5 Liter 2005 42 TageRegentage 5 Liter 2006 38 Tage
Regentage 10 Liter 2005 19 TageRegentage 10 Liter 2006 12 Tage
Regentage 20 Liter 2005 5 TageRegentage 20 Liter 2006 1 Tage


MinTemperatur Datum/Zeit -67,8 C 30.01.2015 07:40
MaxTemperatur Datum/Zeit 37,9 C 07.08.2015 13:35
MinLuftdruck Datum/Zeit 969,0 hPa 16.12.2011 18:00
MaxLuftdruck Datum/Zeit 1047,2 hPa 16.02.2008 21:20
MaxÄnder.Luftdruck 1h Datum 13,6 hPa 23.02.2015
MaxÄnder.Luftdruck Tag Datum 36,8 hPa 27.01.2010
MaxÄnder.Luftdruck 24h Datum 36,8 hPa 27.01.2010
Max Regen/Tag Datum 25,6 l/m 07.10.2015
Max Regen/Stunde Datum 17,2 l/m 14.07.2015
Max Windgeschw. Datum 86,5 km/h 25.06.2008
Längster Frost Beginn 16:55  16.01.2016
Längster Frost Ende 07:52  23.01.2016
Längster Frost Dauer 6 Tage, 14 Stunden, 56 Minuten
Beginn der Aufzeichnung 01.01.1980



Vergleichswerte der Jahre 2015 und 2016
Meßgröße Minimum Zeit Datum Maximum Zeit Datum Durchschnitt
Temperatur Außen am 30.08.2016 8,7° 06:50 30.08.2016 27,9° 18:10 30.08.2016 17,4°
Temperatur Außen am 31.08.2015 17,6° 06:20 31.08.2015 33,9° 14:40 31.08.2015 24,8°
Temperatur Außen im August 2016 6,3° 05:55 18.08.2016 34,8° 17:35 28.08.2016 18,0°
Temperatur Außen im August 2015 7,6° 02:10 01.08.2015 37,9° 13:35 07.08.2015 21,2°
Temperatur Außen in 2016 -15,0° 06:30 22.01.2016 34,8° 17:35 28.08.2016 10,7°
Temperatur Außen in 2015 -67,8° 07:40 30.01.2015 37,9° 13:35 07.08.2015 10,4°
Luftdruck am 30.08.2016 1020,2 hPa 19:25 30.08.2016 1026,0 hPa 00:40 30.08.2016 1023,3 hPa
Luftdruck am 31.08.2015 1008,2 hPa 21:40 31.08.2015 1016,3 hPa 00:00 31.08.2015 1010,7 hPa
Luftdruck im August 2016 1009,5 hPa 16:55 18.08.2016 1028,4 hPa 09:15 07.08.2016 1019,4 hPa
Luftdruck im August 2015 1003,7 hPa 20:00 14.08.2015 1026,5 hPa 08:40 21.08.2015 1015,8 hPa
Luftdruck in 2016 985,3 hPa 22:10 09.02.2016 1039,9 hPa 18:40 16.02.2016 1015,3 hPa
Luftdruck in 2015 973,2 hPa 05:30 30.01.2015 1042,9 hPa 10:25 18.02.2015 1019,1 hPa
Feuchte am 30.08.2016 28 % 17:00 30.08.2016 91 % 07:25 30.08.2016 64 %
Feuchte am 31.08.2015 47 % 14:50 31.08.2015 95 % 04:30 31.08.2015 77 %
Feuchte im August 2016 27 % 13:50 26.08.2016 98 % 08:15 24.08.2016 76 %
Feuchte im August 2015 24 % 16:35 07.08.2015 98 % 08:15 30.08.2015 73 %
Feuchte in 2016 27 % 13:50 26.08.2016 100 % 08:10 04.06.2016 81 %
Feuchte in 2015 0 % 07:11 15.11.2015 99 % 10:45 31.10.2015 80 %
Windgeschwindigkeit am 30.08.2016      6,1 km/h 16:00 30.08.2016 0,7 km/h
Windgeschwindigkeit am 31.08.2015      0,0 km/h 00:00 31.08.2015 0,0 km/h
Windgeschwindigkeit im August 2016      15,3 km/h 22:00 28.08.2016 1,0 km/h
Windgeschwindigkeit im August 2015      21,4km/h 13:00 25.08.2015 1,2 km/h
Windgeschwindigkeit in 2016      30,6 km/h 05:00 22.02.2016 1,5 km/h
Windgeschwindigkeit in 2015      36,7 km/h 12:00 09.01.2015 1,7 km/h
Hauptwindrichtung am 30.08.2016            360° = N
Hauptwindrichtung am 31.08.2015            360° = N
Hauptwindrichtung im August 2016            360° = N
Hauptwindrichtung im August 2015            360° = N
Hauptwindrichtung in 2016            360° = N
Hauptwindrichtung in 2015            360° =   N
Regenmenge am 30.08.2016 # = Gesamtmenge!       0,0 l/m² 23:00 30.08.2016 #0,0 l/m²
Regenmenge am 31.08.2015 # = Gesamtmenge!      0,0 l/m² 00:00 31.08.2015 #0,0 l/m²
Regenmenge im August 2016 # = Gesamtmenge!      14,8 l/m² 03:50 05.08.2016 #29,8 l/m²
Regenmenge im August 2015 # = Gesamtmenge!      35,2 l/m² 20:55 17.08.2015 #91,6 l/m²
Regenmenge in 2016 # = Gesamtmenge!      24,4 l/m² 19:40 23.05.2016 #465,6 l/m²
Regenmenge in 2015 # = Gesamtmenge!      35,2 l/m² 20:55 17.08.2015 #699,6 l/m²




Vergleichswerte von 31.07.2016 bis 30.08.2016
DatumMinimale Temperatur Maximale Temperatur DurchschnittMinimaler Luftdruck Maximaler Luftdruck DurchschnittRegenmengemax. Windgeschwindigkeit
30.08.2016 8,7° 27,9° 17,4° 1021,8 hPa 1027,2 hPa 1023,3 hPa #0,0 l/m² 6,1 km/h
30.08.2016 10,8° 22,9° 15,3° 1021,8 hPa 1027,2 hPa 1025,8 hPa #0,0 l/m² 6,1 km/h
29.08.2016 17,8° 25,9° 21,0° 1013,4 hPa 1021,7 hPa 1017,8 hPa #0,0 l/m² 12,2 km/h
28.08.2016 12,7° 34,8° 23,9° 1011,2 hPa 1017,4 hPa 1013,2 hPa #0,0 l/m² 15,3 km/h
27.08.2016 14,9° 32,5° 22,1° 1017,0 hPa 1019,7 hPa 1018,4 hPa #0,0 l/m² 6,4 km/h
26.08.2016 10,8° 33,1° 22,5° 1017,1 hPa 1019,3 hPa 1018,1 hPa #0,0 l/m² 6,1 km/h
25.08.2016 11,4° 30,5° 20,0° 1019,3 hPa 1024,1 hPa 1020,9 hPa #0,0 l/m² 3,2 km/h
24.08.2016 13,6° 28,8° 20,0° 1023,4 hPa 1027,1 hPa 1025,1 hPa #0,0 l/m² 3,2 km/h
23.08.2016 14,7° 25,4° 20,6° 1026,4 hPa 1028,1 hPa 1027,3 hPa #0,0 l/m² 6,4 km/h
22.08.2016 13,5° 24,2° 17,4° 1021,9 hPa 1028,0 hPa 1026,3 hPa #0,0 l/m² 12,2 km/h
21.08.2016 13,1° 22,9° 16,8° 1015,5 hPa 1022,2 hPa 1019,0 hPa #5,8 l/m² 12,2 km/h
20.08.2016 15,8° 27,6° 21,3° 1012,3 hPa 1015,6 hPa 1014,2 hPa #2,2 l/m² 9,2 km/h
19.08.2016 8,7° 27,7° 17,9° 1010,9 hPa 1012,5 hPa 1011,8 hPa #0,0 l/m² 4,8 km/h
18.08.2016 6,3° 25,1° 15,0° 1009,5 hPa 1014,5 hPa 1011,0 hPa #0,0 l/m² 6,1 km/h
17.08.2016 9,5° 20,5° 13,5° 1014,4 hPa 1017,3 hPa 1015,6 hPa #0,0 l/m² 3,2 km/h
16.08.2016 7,4° 21,4° 14,6° 1016,0 hPa 1022,7 hPa 1018,1 hPa #0,0 l/m² 6,1 km/h
15.08.2016 10,7° 22,4° 15,9° 1021,9 hPa 1024,6 hPa 1022,9 hPa #0,0 l/m² 6,1 km/h
14.08.2016 12,4° 23,1° 17,4° 1021,2 hPa 1023,6 hPa 1022,5 hPa #0,0 l/m² 9,2 km/h
13.08.2016 16,6° 27,5° 19,8° 1019,6 hPa 1024,3 hPa 1021,3 hPa #0,0 l/m² 15,3 km/h
12.08.2016 12,1° 17,5° 16,0° 1021,3 hPa 1024,4 hPa 1023,2 hPa #1,8 l/m² 12,2 km/h
11.08.2016 6,8° 18,0° 12,9° 1021,8 hPa 1024,7 hPa 1023,3 hPa #0,0 l/m² 12,2 km/h
10.08.2016 9,0° 15,1° 11,4° 1018,7 hPa 1021,8 hPa 1020,3 hPa #4,2 l/m² 9,7 km/h
09.08.2016 14,2° 20,4° 16,1° 1017,9 hPa 1019,7 hPa 1018,9 hPa #0,0 l/m² 6,1 km/h
08.08.2016 16,6° 28,5° 22,6° 1015,5 hPa 1022,6 hPa 1017,9 hPa #0,0 l/m² 15,3 km/h
07.08.2016 12,2° 27,0° 18,4° 1022,6 hPa 1028,4 hPa 1025,3 hPa #0,0 l/m² 12,2 km/h
06.08.2016 13,9° 22,4° 17,2° 1020,4 hPa 1027,4 hPa 1025,2 hPa #0,0 l/m² 12,2 km/h
05.08.2016 14,6° 20,2° 16,4° 1012,3 hPa 1020,4 hPa 1017,1 hPa #14,8 l/m² 6,1 km/h
04.08.2016 16,7° 28,3° 21,5° 1010,8 hPa 1013,0 hPa 1012,1 hPa #0,0 l/m² 9,2 km/h
03.08.2016 16,1° 22,3° 19,6° 1012,2 hPa 1016,5 hPa 1013,6 hPa #0,2 l/m² 9,2 km/h
02.08.2016 13,8° 20,5° 17,4° 1015,1 hPa 1019,2 hPa 1016,2 hPa #0,8 l/m² 15,3 km/h
01.08.2016 13,8° 22,2° 16,7° 1014,6 hPa 1019,2 hPa 1018,5 hPa #0,0 l/m² 15,3 km/h
31.07.2016 15,0° 25,0° 19,3° 1010,3 hPa 1014,6 hPa 1011,5 hPa #3,6 l/m² 9,2 km/h
Die dargestellten Werte reprsentieren die Daten des aktuellen Tages! Der Luftdruck ist auf Meereshöhe bezogen!
Die Mond-/Sonnen-Daten beziehen sich auf die Standortkoordinaten von 51 3' 20" Nord  -  13 17' 55" Ost
Die Wettervorhersage wurde berechnet - ohne Gewähr!
1999-2011 Werner Krenn / Mischa Thurnherr - Wetterstation Bedien- und Auswertesoftware - V2.96.7


Diagramme

TOP



Aktuelles Wochendiagramm Vorwochendiagramm
für Anzeige Vollbild klicken für Anzeige Vollbild klicken



Aktuelles Monatsdiagramm Vormonatsdiagramm
für Anzeige Vollbild klicken für Anzeige Vollbild klicken

letztes Update: 31.12.2015 23:59:59